Location: Downe
(51.3167°N, 0.0500°E)
Time: 15:59:30
(UTC+00:00)

SJ-12 - Pass Details

Date: 17 November 2019
Orbit: 570 x 585 km, 97.6° (Epoch: 13 December)

Event Time Altitude Azimuth Distance (km) Brightness Sun altitude
Rises 05:56:13 0° 9° (N) 2,825 7.4 -12.9°
Reaches altitude 10° 05:58:26 10° 4° (N) 1,921 6.5 -12.6°
Maximum altitude 06:02:26 48° 290° (WNW) 774 4.1 -12.0°
Drops below altitude 10° 06:06:25 10° 216° (SW) 1,906 6.4 -11.4°
Sets 06:08:36 0° 211° (SSW) 2,800 7.3 -11.0°
